Porterville, CA

12:17 AM PDT on June 21, 2018 (GMT -0700)
Porterville Municipal

Weather History for KPTV - November, 2017

Change the Weather History Date:

Wednesday, November 15, 2017

  Actual Average Record
Temperature  
Mean Temperature 58 °F -  
Max Temperature 72 °F 66 °F 80 °F (1963)
Min Temperature 45 °F 40 °F 28 °F (1964)
Degree Days  
Heating Degree Days 6    
Growing Degree Days 8 (Base 50)    
Moisture  
Dew Point 48 °F    
Average Humidity 69    
Maximum Humidity 90    
Minimum Humidity 46    
Precipitation  
Precipitation 0.00 in - - ()
Sea Level Pressure  
Sea Level Pressure 30.08 in    
Wind  
Wind Speed 4 mph (ESE)    
Max Wind Speed 8 mph    
Max Gust Speed -    
Visibility 9 miles    
Events      
Averages and records for this station are not official NWS values.
T = Trace of Precipitation, MM = Missing Value Source: NWS Daily Summary

Daily Weather History Graph

Daily Weather History Graph

Search for Another Location

Airport or City:

Astronomy

Nov. 15, 2017 Rise Set
Actual Time 6:33 AM PST 4:48 PM PST
Civil Twilight 6:05 AM PST 5:15 PM PST
Nautical Twilight 5:34 AM PST 5:46 PM PST
Astronomical Twilight 5:04 AM PST 6:17 PM PST
Moon 3:45 AM PST (11/15) 3:40 PM PST (11/15)
Length of Visible Light 11h 09m
Length of Day
10h 15m
Waning Crescent, 7% of the Moon is Illuminated
Nov 15
Waning Crescent
Nov 18
New
Nov 26
First Quarter
Dec 3
Full
Dec 9
Last Quarter

Hourly Weather History & Observations

Time (PST) Temp. Dew Point Humidity Pressure Visibility Wind Dir Wind Speed Gust Speed Precip Events Conditions
12:56 AM 50.0 °F 45.0 °F 83% 30.14 in 10.0 mi ESE 6.9 mph - N/A   Clear
1:56 AM 46.9 °F 43.0 °F 86% 30.15 in 10.0 mi SSW 6.9 mph - N/A   Clear
2:56 AM 46.9 °F 44.1 °F 90% 30.15 in 9.0 mi Calm Calm - N/A   Clear
3:56 AM 46.9 °F 44.1 °F 90% 30.13 in 8.0 mi NE 3.5 mph - N/A   Clear
4:56 AM 45.0 °F 41.0 °F 86% 30.14 in 9.0 mi Calm Calm - N/A   Clear
5:56 AM 46.9 °F 43.0 °F 86% 30.13 in 9.0 mi Calm Calm - N/A   Clear
6:56 AM 45.0 °F 41.0 °F 86% 30.16 in 8.0 mi Calm Calm - N/A   Clear
7:56 AM 48.9 °F 44.1 °F 83% 30.15 in 10.0 mi ESE 4.6 mph - N/A   Clear
8:56 AM 57.0 °F 46.9 °F 69% 30.14 in 10.0 mi Calm Calm - N/A   Clear
9:56 AM 63.0 °F 48.9 °F 60% 30.12 in 9.0 mi Calm Calm - N/A   Clear
10:56 AM 66.0 °F 51.1 °F 59% 30.11 in 10.0 mi West 4.6 mph - N/A   Clear
11:56 AM 69.1 °F 51.1 °F 53% 30.07 in 10.0 mi Calm Calm - N/A   Clear
12:56 PM 71.1 °F 51.1 °F 49% 30.04 in 10.0 mi Variable 3.5 mph - N/A   Clear
3:56 PM 72.0 °F 50.0 °F 46% 30.02 in 10.0 mi Calm Calm - N/A   Clear
4:56 PM 70.0 °F 50.0 °F 49% 30.01 in 5.0 mi ENE 4.6 mph - N/A   Haze
5:56 PM 66.9 °F 50.0 °F 54% 30.00 in 6.0 mi East 5.8 mph - N/A   Haze
6:56 PM 63.0 °F 51.1 °F 65% 30.01 in 10.0 mi WSW 5.8 mph - N/A   Clear
7:56 PM 62.1 °F 52.0 °F 70% 30.02 in 10.0 mi ESE 8.1 mph - N/A   Clear
8:56 PM 61.0 °F 50.0 °F 67% 30.03 in 10.0 mi ESE 4.6 mph - N/A   Clear
9:56 PM 62.1 °F 50.0 °F 65% 30.02 in 10.0 mi East 5.8 mph - N/A   Clear
10:56 PM 62.1 °F 48.9 °F 62% 30.01 in 10.0 mi ESE 3.5 mph - N/A   Clear
11:56 PM 63.0 °F 48.9 °F 60% 30.00 in 10.0 mi SE 3.5 mph - N/A   Clear